Location: Dallas
(32.7833°N, 96.8000°W)
Time: 15:35:15
(UTC-06:00)

OTV 4 - Pass Details

Date: 23 April 2017
Orbit: 320 x 337 km, 38.0° (Epoch: 25 April)

Event Time Altitude Azimuth Distance (km) Brightness Sun altitude
Rises 20:56:52 0° 291° (WNW) 2,101 6.5 -11.4°
Reaches altitude 10° 20:58:53 10° 291° (WNW) 1,265 4.7 -11.8°
Maximum altitude 21:01:44 89° 207° (SSW) 338 0.2 -12.3°
Enters shadow 21:03:11 26° 113° (ESE) 704 1.3 -12.6°
